Data supplied by UK-AIR on 15/6/2011
All Data GMT hour ending  NB:  Upto 31/01/2009 PM10 were measured with a Standard TEOM, from 01/01/2008 PM10 were measured with a VCM TEOM
Status: R =Ratified P=Provisional,P*=As supplied
,,Oxford St Ebbes,,,,,,,,,,,,,,,,,,,,,,,
Date,time,"PM<sub>10</sub> particulate matter (Hourly measured)",status,unit,"Nitric oxide",status,unit,"Nitrogen dioxide",status,unit,"Nitrogen oxides as nitrogen dioxide",status,unit,"Non-volatile PM<sub>2.5</sub> (Hourly measured)",status,unit,"PM<sub>2.5</sub> particulate matter (Hourly measured)",status,unit,"Volatile PM2.5 (Hourly measured)",status,unit
 
01-01-2008,01:00,29,R,ugm-3 (VCM),,,,,,,,,,,,,,,,,,
01-01-2008,02:00,29,R,ugm-3 (VCM),,,,,,,,,,,,,,,,,,
01-01-2008,03:00,19,R,ugm-3 (VCM),1,R,ugm-3,29,R,ugm-3,31,R,ugm-3,,,,,,,,,
01-01-2008,04:00,16,R,ugm-3 (VCM),1,R,ugm-3,25,R,ugm-3,27,R,ugm-3,,,,,,,,,
01-01-2008,05:00,12,R,ugm-3 (VCM),1,R,ugm-3,21,R,ugm-3,23,R,ugm-3,,,,,,,,,
01-01-2008,06:00,11,R,ugm-3 (VCM),0,R,ugm-3,23,R,ugm-3,23,R,ugm-3,,,,,,,,,
01-01-2008,07:00,12,R,ugm-3 (VCM),5,R,ugm-3,34,R,ugm-3,42,R,ugm-3,,,,,,,,,
01-01-2008,08:00,10,R,ugm-3 (VCM),3,R,ugm-3,32,R,ugm-3,36,R,ugm-3,,,,,,,,,
01-01-2008,09:00,12,R,ugm-3 (VCM),3,R,ugm-3,31,R,ugm-3,34,R,ugm-3,,,,,,,,,
01-01-2008,10:00,13,R,ugm-3 (VCM),3,R,ugm-3,29,R,ugm-3,32,R,ugm-3,,,,,,,,,
01-01-2008,11:00,16,R,ugm-3 (VCM),5,R,ugm-3,32,R,ugm-3,40,R,ugm-3,,,,,,,,,
01-01-2008,12:00,12,R,ugm-3 (VCM),4,R,ugm-3,25,R,ugm-3,31,R,ugm-3,,,,,,,,,
01-01-2008,13:00,12,R,ugm-3 (VCM),1,R,ugm-3,17,R,ugm-3,19,R,ugm-3,,,,,,,,,
01-01-2008,14:00,16,R,ugm-3 (VCM),1,R,ugm-3,21,R,ugm-3,23,R,ugm-3,,,,,,,,,
01-01-2008,15:00,17,R,ugm-3 (VCM),3,R,ugm-3,34,R,ugm-3,38,R,ugm-3,,,,,,,,,
01-01-2008,16:00,18,R,ugm-3 (VCM),4,R,ugm-3,48,R,ugm-3,53,R,ugm-3,,,,,,,,,
01-01-2008,17:00,21,R,ugm-3 (VCM),6,R,ugm-3,53,R,ugm-3,63,R,ugm-3,,,,,,,,,
01-01-2008,18:00,28,R,ugm-3 (VCM),11,R,ugm-3,55,R,ugm-3,73,R,ugm-3,,,,,,,,,
01-01-2008,19:00,31,R,ugm-3 (VCM),8,R,ugm-3,52,R,ugm-3,63,R,ugm-3,,,,,,,,,
01-01-2008,20:00,31,R,ugm-3 (VCM),10,R,ugm-3,53,R,ugm-3,69,R,ugm-3,,,,,,,,,
01-01-2008,21:00,28,R,ugm-3 (VCM),23,R,ugm-3,50,R,ugm-3,84,R,ugm-3,,,,,,,,,
01-01-2008,22:00,30,R,ugm-3 (VCM),6,R,ugm-3,52,R,ugm-3,61,R,ugm-3,,,,,,,,,
01-01-2008,23:00,29,R,ugm-3 (VCM),15,R,ugm-3,50,R,ugm-3,73,R,ugm-3,,,,,,,,,
01-01-2008,24:00,24,R,ugm-3 (VCM),10,R,ugm-3,46,R,ugm-3,61,R,ugm-3,,,,,,,,,
02-01-2008,01:00,24,R,ugm-3 (VCM),18,R,ugm-3,44,R,ugm-3,71,R,ugm-3,,,,,,,,,
02-01-2008,02:00,19,R,ugm-3 (VCM),,,,,,,,,,,,,,,,,,
02-01-2008,03:00,22,R,ugm-3 (VCM),1,R,ugm-3,50,R,ugm-3,52,R,ugm-3,,,,,,,,,
02-01-2008,04:00,16,R,ugm-3 (VCM),1,R,ugm-3,40,R,ugm-3,42,R,ugm-3,,,,,,,,,
02-01-2008,05:00,17,R,ugm-3 (VCM),1,R,ugm-3,38,R,ugm-3,40,R,ugm-3,,,,,,,,,
02-01-2008,06:00,18,R,ugm-3 (VCM),1,R,ugm-3,32,R,ugm-3,34,R,ugm-3,,,,,,,,,
02-01-2008,07:00,19,R,ugm-3 (VCM),1,R,ugm-3,27,R,ugm-3,29,R,ugm-3,,,,,,,,,
02-01-2008,08:00,16,R,ugm-3 (VCM),4,R,ugm-3,29,R,ugm-3,34,R,ugm-3,,,,,,,,,
02-01-2008,09:00,22,R,ugm-3 (VCM),4,R,ugm-3,31,R,ugm-3,36,R,ugm-3,,,,,,,,,
02-01-2008,10:00,19,R,ugm-3 (VCM),3,R,ugm-3,27,R,ugm-3,31,R,ugm-3,,,,,,,,,
02-01-2008,11:00,14,R,ugm-3 (VCM),3,R,ugm-3,23,R,ugm-3,27,R,ugm-3,,,,,,,,,
02-01-2008,12:00,18,R,ugm-3 (VCM),5,R,ugm-3,31,R,ugm-3,38,R,ugm-3,,,,,,,,,
02-01-2008,13:00,20,R,ugm-3 (VCM),6,R,ugm-3,27,R,ugm-3,36,R,ugm-3,,,,,,,,,
02-01-2008,14:00,24,R,ugm-3 (VCM),6,R,ugm-3,27,R,ugm-3,36,R,ugm-3,,,,,,,,,
02-01-2008,15:00,22,R,ugm-3 (VCM),4,R,ugm-3,25,R,ugm-3,31,R,ugm-3,,,,,,,,,
02-01-2008,16:00,20,R,ugm-3 (VCM),4,R,ugm-3,27,R,ugm-3,32,R,ugm-3,,,,,,,,,
02-01-2008,17:00,17,R,ugm-3 (VCM),3,R,ugm-3,31,R,ugm-3,34,R,ugm-3,,,,,,,,,
02-01-2008,18:00,19,R,ugm-3 (VCM),4,R,ugm-3,36,R,ugm-3,42,R,ugm-3,,,,,,,,,
02-01-2008,19:00,22,R,ugm-3 (VCM),3,R,ugm-3,34,R,ugm-3,38,R,ugm-3,,,,,,,,,
02-01-2008,20:00,23,R,ugm-3 (VCM),4,R,ugm-3,34,R,ugm-3,40,R,ugm-3,,,,,,,,,
02-01-2008,21:00,23,R,ugm-3 (VCM),4,R,ugm-3,40,R,ugm-3,46,R,ugm-3,,,,,,,,,
02-01-2008,22:00,21,R,ugm-3 (VCM),3,R,ugm-3,36,R,ugm-3,40,R,ugm-3,,,,,,,,,
02-01-2008,23:00,21,R,ugm-3 (VCM),3,R,ugm-3,32,R,ugm-3,36,R,ugm-3,,,,,,,,,
02-01-2008,24:00,24,R,ugm-3 (VCM),3,R,ugm-3,32,R,ugm-3,36,R,ugm-3,,,,,,,,,
03-01-2008,01:00,23,R,ugm-3 (VCM),1,R,ugm-3,29,R,ugm-3,31,R,ugm-3,,,,,,,,,
03-01-2008,02:00,21,R,ugm-3 (VCM),,,,,,,,,,,,,,,,,,
03-01-2008,03:00,22,R,ugm-3 (VCM),1,R,ugm-3,23,R,ugm-3,25,R,ugm-3,,,,,,,,,
03-01-2008,04:00,25,R,ugm-3 (VCM),1,R,ugm-3,21,R,ugm-3,23,R,ugm-3,,,,,,,,,
03-01-2008,05:00,25,R,ugm-3 (VCM),1,R,ugm-3,19,R,ugm-3,21,R,ugm-3,,,,,,,,,
03-01-2008,06:00,22,R,ugm-3 (VCM),1,R,ugm-3,21,R,ugm-3,23,R,ugm-3,,,,,,,,,
03-01-2008,07:00,21,R,ugm-3 (VCM),3,R,ugm-3,25,R,ugm-3,29,R,ugm-3,,,,,,,,,
03-01-2008,08:00,23,R,ugm-3 (VCM),3,R,ugm-3,31,R,ugm-3,34,R,ugm-3,,,,,,,,,
03-01-2008,09:00,23,R,ugm-3 (VCM),4,R,ugm-3,32,R,ugm-3,38,R,ugm-3,,,,,,,,,
03-01-2008,10:00,22,R,ugm-3 (VCM),4,R,ugm-3,36,R,ugm-3,42,R,ugm-3,,,,,,,,,
03-01-2008,11:00,23,R,ugm-3 (VCM),5,R,ugm-3,31,R,ugm-3,38,R,ugm-3,,,,,,,,,
03-01-2008,12:00,23,R,ugm-3 (VCM),4,R,ugm-3,29,R,ugm-3,34,R,ugm-3,,,,,,,,,
03-01-2008,13:00,23,R,ugm-3 (VCM),4,R,ugm-3,27,R,ugm-3,32,R,ugm-3,,,,,,,,,
03-01-2008,14:00,26,R,ugm-3 (VCM),3,R,ugm-3,29,R,ugm-3,32,R,ugm-3,,,,,,,,,
03-01-2008,15:00,26,R,ugm-3 (VCM),3,R,ugm-3,31,R,ugm-3,34,R,ugm-3,,,,,,,,,
03-01-2008,16:00,26,R,ugm-3 (VCM),4,R,ugm-3,38,R,ugm-3,44,R,ugm-3,,,,,,,,,
03-01-2008,17:00,28,R,ugm-3 (VCM),5,R,ugm-3,44,R,ugm-3,52,R,ugm-3,,,,,,,,,
03-01-2008,18:00,27,R,ugm-3 (VCM),6,R,ugm-3,50,R,ugm-3,59,R,ugm-3,,,,,,,,,
03-01-2008,19:00,24,R,ugm-3 (VCM),6,R,ugm-3,48,R,ugm-3,57,R,ugm-3,,,,,,,,,
03-01-2008,20:00,24,R,ugm-3 (VCM),6,R,ugm-3,46,R,ugm-3,55,R,ugm-3,,,,,,,,,
03-01-2008,21:00,27,R,ugm-3 (VCM),5,R,ugm-3,46,R,ugm-3,53,R,ugm-3,,,,,,,,,
03-01-2008,22:00,33,R,ugm-3 (VCM),6,R,ugm-3,44,R,ugm-3,53,R,ugm-3,,,,,,,,,
03-01-2008,23:00,32,R,ugm-3 (VCM),6,R,ugm-3,44,R,ugm-3,53,R,ugm-3,,,,,,,,,
03-01-2008,24:00,36,R,ugm-3 (VCM),5,R,ugm-3,44,R,ugm-3,52,R,ugm-3,,,,,,,,,
04-01-2008,01:00,34,R,ugm-3 (VCM),4,R,ugm-3,42,R,ugm-3,48,R,ugm-3,,,,,,,,,
04-01-2008,02:00,37,R,ugm-3 (VCM),,,,,,,,,,,,,,,,,,
04-01-2008,03:00,33,R,ugm-3 (VCM),6,R,ugm-3,50,R,ugm-3,59,R,ugm-3,,,,,,,,,
04-01-2008,04:00,29,R,ugm-3 (VCM),8,R,ugm-3,50,R,ugm-3,61,R,ugm-3,,,,,,,,,
04-01-2008,05:00,24,R,ugm-3 (VCM),5,R,ugm-3,42,R,ugm-3,50,R,ugm-3,,,,,,,,,
04-01-2008,06:00,24,R,ugm-3 (VCM),3,R,ugm-3,34,R,ugm-3,38,R,ugm-3,,,,,,,,,
04-01-2008,07:00,24,R,ugm-3 (VCM),8,R,ugm-3,42,R,ugm-3,53,R,ugm-3,,,,,,,,,
04-01-2008,08:00,26,R,ugm-3 (VCM),15,R,ugm-3,46,R,ugm-3,69,R,ugm-3,,,,,,,,,
04-01-2008,09:00,28,R,ugm-3 (VCM),18,R,ugm-3,44,R,ugm-3,71,R,ugm-3,,,,,,,,,
04-01-2008,10:00,29,R,ugm-3 (VCM),13,R,ugm-3,40,R,ugm-3,59,R,ugm-3,,,,,,,,,
04-01-2008,11:00,32,R,ugm-3 (VCM),13,R,ugm-3,36,R,ugm-3,55,R,ugm-3,,,,,,,,,
04-01-2008,12:00,35,R,ugm-3 (VCM),21,R,ugm-3,42,R,ugm-3,74,R,ugm-3,,,,,,,,,
04-01-2008,13:00,39,R,ugm-3 (VCM),23,R,ugm-3,40,R,ugm-3,74,R,ugm-3,,,,,,,,,
04-01-2008,14:00,39,R,ugm-3 (VCM),18,R,ugm-3,40,R,ugm-3,67,R,ugm-3,,,,,,,,,
04-01-2008,15:00,28,R,ugm-3 (VCM),11,R,ugm-3,32,R,ugm-3,50,R,ugm-3,,,,,,,,,
04-01-2008,16:00,19,R,ugm-3 (VCM),4,R,ugm-3,34,R,ugm-3,40,R,ugm-3,,,,,,,,,
04-01-2008,17:00,15,R,ugm-3 (VCM),3,R,ugm-3,29,R,ugm-3,32,R,ugm-3,,,,,,,,,
04-01-2008,18:00,12,R,ugm-3 (VCM),3,R,ugm-3,31,R,ugm-3,34,R,ugm-3,,,,,,,,,
04-01-2008,19:00,10,R,ugm-3 (VCM),4,R,ugm-3,32,R,ugm-3,38,R,ugm-3,,,,,,,,,
04-01-2008,20:00,10,R,ugm-3 (VCM),3,R,ugm-3,38,R,ugm-3,42,R,ugm-3,,,,,,,,,
04-01-2008,21:00,,,,4,R,ugm-3,31,R,ugm-3,36,R,ugm-3,,,,,,,,,
04-01-2008,22:00,5,R,ugm-3 (VCM),3,R,ugm-3,23,R,ugm-3,27,R,ugm-3,,,,,,,,,
04-01-2008,23:00,2,R,ugm-3 (VCM),3,R,ugm-3,11,R,ugm-3,15,R,ugm-3,,,,,,,,,
04-01-2008,24:00,3,R,ugm-3 (VCM),3,R,ugm-3,10,R,ugm-3,13,R,ugm-3,,,,,,,,,
05-01-2008,01:00,4,R,ugm-3 (VCM),3,R,ugm-3,10,R,ugm-3,13,R,ugm-3,,,,,,,,,
05-01-2008,02:00,5,R,ugm-3 (VCM),,,,,,,,,,,,,,,,,,
05-01-2008,03:00,8,R,ugm-3 (VCM),3,R,ugm-3,8,R,ugm-3,11,R,ugm-3,,,,,,,,,
05-01-2008,04:00,9,R,ugm-3 (VCM),3,R,ugm-3,8,R,ugm-3,11,R,ugm-3,,,,,,,,,
05-01-2008,05:00,7,R,ugm-3 (VCM),3,R,ugm-3,8,R,ugm-3,11,R,ugm-3,,,,,,,,,
05-01-2008,06:00,4,R,ugm-3 (VCM),1,R,ugm-3,8,R,ugm-3,10,R,ugm-3,,,,,,,,,
05-01-2008,07:00,7,R,ugm-3 (VCM),1,R,ugm-3,6,R,ugm-3,8,R,ugm-3,,,,,,,,,
05-01-2008,08:00,5,R,ugm-3 (VCM),3,R,ugm-3,6,R,ugm-3,10,R,ugm-3,,,,,,,,,
05-01-2008,09:00,8,R,ugm-3 (VCM),3,R,ugm-3,10,R,ugm-3,13,R,ugm-3,,,,,,,,,
05-01-2008,10:00,7,R,ugm-3 (VCM),3,R,ugm-3,13,R,ugm-3,17,R,ugm-3,,,,,,,,,
05-01-2008,11:00,10,R,ugm-3 (VCM),4,R,ugm-3,15,R,ugm-3,21,R,ugm-3,,,,,,,,,
05-01-2008,12:00,21,R,ugm-3 (VCM),3,R,ugm-3,13,R,ugm-3,17,R,ugm-3,,,,,,,,,
05-01-2008,13:00,20,R,ugm-3 (VCM),3,R,ugm-3,13,R,ugm-3,17,R,ugm-3,,,,,,,,,
05-01-2008,14:00,9,R,ugm-3 (VCM),1,R,ugm-3,10,R,ugm-3,11,R,ugm-3,,,,,,,,,
05-01-2008,15:00,4,R,ugm-3 (VCM),1,R,ugm-3,8,R,ugm-3,10,R,ugm-3,,,,,,,,,
05-01-2008,16:00,4,R,ugm-3 (VCM),5,R,ugm-3,19,R,ugm-3,27,R,ugm-3,,,,,,,,,
05-01-2008,17:00,4,R,ugm-3 (VCM),6,R,ugm-3,50,R,ugm-3,59,R,ugm-3,,,,,,,,,
05-01-2008,18:00,3,R,ugm-3 (VCM),4,R,ugm-3,42,R,ugm-3,48,R,ugm-3,,,,,,,,,
05-01-2008,19:00,6,R,ugm-3 (VCM),3,R,ugm-3,29,R,ugm-3,32,R,ugm-3,,,,,,,,,
05-01-2008,20:00,7,R,ugm-3 (VCM),1,R,ugm-3,27,R,ugm-3,29,R,ugm-3,,,,,,,,,
05-01-2008,21:00,7,R,ugm-3 (VCM),3,R,ugm-3,25,R,ugm-3,29,R,ugm-3,,,,,,,,,
05-01-2008,22:00,6,R,ugm-3 (VCM),1,R,ugm-3,19,R,ugm-3,21,R,ugm-3,,,,,,,,,
05-01-2008,23:00,6,R,ugm-3 (VCM),5,R,ugm-3,34,R,ugm-3,42,R,ugm-3,,,,,,,,,
05-01-2008,24:00,7,R,ugm-3 (VCM),13,R,ugm-3,36,R,ugm-3,55,R,ugm-3,,,,,,,,,
06-01-2008,01:00,7,R,ugm-3 (VCM),1,R,ugm-3,17,R,ugm-3,19,R,ugm-3,,,,,,,,,
06-01-2008,02:00,7,R,ugm-3 (VCM),,,,,,,,,,,,,,,,,,
06-01-2008,03:00,7,R,ugm-3 (VCM),1,R,ugm-3,13,R,ugm-3,15,R,ugm-3,,,,,,,,,
06-01-2008,04:00,8,R,ugm-3 (VCM),1,R,ugm-3,10,R,ugm-3,11,R,ugm-3,,,,,,,,,
06-01-2008,05:00,9,R,ugm-3 (VCM),1,R,ugm-3,10,R,ugm-3,11,R,ugm-3,,,,,,,,,
06-01-2008,06:00,10,R,ugm-3 (VCM),1,R,ugm-3,10,R,ugm-3,11,R,ugm-3,,,,,,,,,
06-01-2008,07:00,11,R,ugm-3 (VCM),1,R,ugm-3,13,R,ugm-3,15,R,ugm-3,,,,,,,,,
06-01-2008,08:00,8,R,ugm-3 (VCM),1,R,ugm-3,13,R,ugm-3,15,R,ugm-3,,,,,,,,,
06-01-2008,09:00,9,R,ugm-3 (VCM),3,R,ugm-3,17,R,ugm-3,21,R,ugm-3,,,,,,,,,
06-01-2008,10:00,10,R,ugm-3 (VCM),1,R,ugm-3,19,R,ugm-3,21,R,ugm-3,,,,,,,,,
06-01-2008,11:00,9,R,ugm-3 (VCM),3,R,ugm-3,17,R,ugm-3,21,R,ugm-3,,,,,,,,,
06-01-2008,12:00,12,R,ugm-3 (VCM),3,R,ugm-3,13,R,ugm-3,17,R,ugm-3,,,,,,,,,
06-01-2008,13:00,13,R,ugm-3 (VCM),3,R,ugm-3,13,R,ugm-3,17,R,ugm-3,,,,,,,,,
06-01-2008,14:00,9,R,ugm-3 (VCM),1,R,ugm-3,10,R,ugm-3,11,R,ugm-3,,,,,,,,,
06-01-2008,15:00,10,R,ugm-3 (VCM),3,R,ugm-3,21,R,ugm-3,25,R,ugm-3,,,,,,,,,
06-01-2008,16:00,16,R,ugm-3 (VCM),3,R,ugm-3,31,R,ugm-3,34,R,ugm-3,,,,,,,,,
06-01-2008,17:00,23,R,ugm-3 (VCM),3,R,ugm-3,40,R,ugm-3,44,R,ugm-3,,,,,,,,,
06-01-2008,18:00,23,R,ugm-3 (VCM),4,R,ugm-3,46,R,ugm-3,52,R,ugm-3,,,,,,,,,
06-01-2008,19:00,23,R,ugm-3 (VCM),3,R,ugm-3,36,R,ugm-3,40,R,ugm-3,,,,,,,,,
06-01-2008,20:00,12,R,ugm-3 (VCM),1,R,ugm-3,19,R,ugm-3,21,R,ugm-3,,,,,,,,,
06-01-2008,21:00,10,R,ugm-3 (VCM),1,R,ugm-3,11,R,ugm-3,13,R,ugm-3,,,,,,,,,
06-01-2008,22:00,4,R,ugm-3 (VCM),1,R,ugm-3,15,R,ugm-3,17,R,ugm-3,,,,,,,,,
06-01-2008,23:00,5,R,ugm-3 (VCM),1,R,ugm-3,10,R,ugm-3,11,R,ugm-3,,,,,,,,,
06-01-2008,24:00,17,R,ugm-3 (VCM),1,R,ugm-3,4,R,ugm-3,6,R,ugm-3,,,,,,,,,
07-01-2008,01:00,26,R,ugm-3 (VCM),1,R,ugm-3,4,R,ugm-3,6,R,ugm-3,,,,,,,,,
07-01-2008,02:00,13,R,ugm-3 (VCM),,,,,,,,,,,,,,,,,,
07-01-2008,03:00,8,R,ugm-3 (VCM),1,R,ugm-3,6,R,ugm-3,8,R,ugm-3,,,,,,,,,
07-01-2008,04:00,10,R,ugm-3 (VCM),1,R,ugm-3,4,R,ugm-3,6,R,ugm-3,,,,,,,,,
07-01-2008,05:00,12,R,ugm-3 (VCM),1,R,ugm-3,6,R,ugm-3,8,R,ugm-3,,,,,,,,,
07-01-2008,06:00,11,R,ugm-3 (VCM),3,R,ugm-3,6,R,ugm-3,10,R,ugm-3,,,,,,,,,
07-01-2008,07:00,17,R,ugm-3 (VCM),3,R,ugm-3,6,R,ugm-3,10,R,ugm-3,,,,,,,,,
07-01-2008,08:00,12,R,ugm-3 (VCM),3,R,ugm-3,8,R,ugm-3,11,R,ugm-3,,,,,,,,,
07-01-2008,09:00,6,R,ugm-3 (VCM),3,R,ugm-3,8,R,ugm-3,11,R,ugm-3,,,,,,,,,
07-01-2008,10:00,12,R,ugm-3 (VCM),4,R,ugm-3,10,R,ugm-3,15,R,ugm-3,,,,,,,,,
07-01-2008,11:00,16,R,ugm-3 (VCM),3,R,ugm-3,13,R,ugm-3,17,R,ugm-3,,,,,,,,,
07-01-2008,12:00,17,R,ugm-3 (VCM),4,R,ugm-3,15,R,ugm-3,21,R,ugm-3,,,,,,,,,
07-01-2008,13:00,-1,R,ugm-3 (VCM),4,R,ugm-3,17,R,ugm-3,23,R,ugm-3,,,,,,,,,
07-01-2008,14:00,4,R,ugm-3 (VCM),3,R,ugm-3,15,R,ugm-3,19,R,ugm-3,,,,,,,,,
07-01-2008,15:00,2,R,ugm-3 (VCM),3,R,ugm-3,11,R,ugm-3,15,R,ugm-3,,,,,,,,,
07-01-2008,16:00,4,R,ugm-3 (VCM),3,R,ugm-3,13,R,ugm-3,17,R,ugm-3,,,,,,,,,
07-01-2008,17:00,8,R,ugm-3 (VCM),3,R,ugm-3,13,R,ugm-3,17,R,ugm-3,,,,,,,,,
07-01-2008,18:00,9,R,ugm-3 (VCM),3,R,ugm-3,13,R,ugm-3,17,R,ugm-3,,,,,,,,,
07-01-2008,19:00,11,R,ugm-3 (VCM),3,R,ugm-3,17,R,ugm-3,21,R,ugm-3,,,,,,,,,
07-01-2008,20:00,18,R,ugm-3 (VCM),3,R,ugm-3,23,R,ugm-3,27,R,ugm-3,,,,,,,,,
07-01-2008,21:00,27,R,ugm-3 (VCM),5,R,ugm-3,31,R,ugm-3,38,R,ugm-3,,,,,,,,,
07-01-2008,22:00,20,R,ugm-3 (VCM),4,R,ugm-3,17,R,ugm-3,23,R,ugm-3,,,,,,,,,
07-01-2008,23:00,18,R,ugm-3 (VCM),3,R,ugm-3,15,R,ugm-3,19,R,ugm-3,,,,,,,,,
07-01-2008,24:00,11,R,ugm-3 (VCM),3,R,ugm-3,11,R,ugm-3,15,R,ugm-3,,,,,,,,,
08-01-2008,01:00,16,R,ugm-3 (VCM),1,R,ugm-3,10,R,ugm-3,11,R,ugm-3,,,,,,,,,
08-01-2008,02:00,16,R,ugm-3 (VCM),,,,,,,,,,,,,,,,,,
08-01-2008,03:00,13,R,ugm-3 (VCM),1,R,ugm-3,15,R,ugm-3,17,R,ugm-3,,,,,,,,,
08-01-2008,04:00,16,R,ugm-3 (VCM),1,R,ugm-3,8,R,ugm-3,10,R,ugm-3,,,,,,,,,
08-01-2008,05:00,14,R,ugm-3 (VCM),1,R,ugm-3,8,R,ugm-3,10,R,ugm-3,,,,,,,,,
08-01-2008,06:00,13,R,ugm-3 (VCM),1,R,ugm-3,11,R,ugm-3,13,R,ugm-3,,,,,,,,,
08-01-2008,07:00,10,R,ugm-3 (VCM),3,R,ugm-3,27,R,ugm-3,31,R,ugm-3,,,,,,,,,
08-01-2008,08:00,11,R,ugm-3 (VCM),5,R,ugm-3,38,R,ugm-3,46,R,ugm-3,,,,,,,,,
08-01-2008,09:00,11,R,ugm-3 (VCM),5,R,ugm-3,46,R,ugm-3,53,R,ugm-3,,,,,,,,,
08-01-2008,10:00,8,R,ugm-3 (VCM),3,R,ugm-3,25,R,ugm-3,29,R,ugm-3,,,,,,,,,
08-01-2008,11:00,5,R,ugm-3 (VCM),3,R,ugm-3,25,R,ugm-3,29,R,ugm-3,,,,,,,,,
08-01-2008,12:00,9,R,ugm-3 (VCM),3,R,ugm-3,17,R,ugm-3,21,R,ugm-3,,,,,,,,,
08-01-2008,13:00,9,R,ugm-3 (VCM),3,R,ugm-3,13,R,ugm-3,17,R,ugm-3,,,,,,,,,
08-01-2008,14:00,11,R,ugm-3 (VCM),3,R,ugm-3,13,R,ugm-3,17,R,ugm-3,,,,,,,,,
08-01-2008,15:00,13,R,ugm-3 (VCM),3,R,ugm-3,17,R,ugm-3,21,R,ugm-3,,,,,,,,,
08-01-2008,16:00,14,R,ugm-3 (VCM),3,R,ugm-3,17,R,ugm-3,21,R,ugm-3,,,,,,,,,
08-01-2008,17:00,12,R,ugm-3 (VCM),1,R,ugm-3,15,R,ugm-3,17,R,ugm-3,,,,,,,,,
08-01-2008,18:00,16,R,ugm-3 (VCM),1,R,ugm-3,19,R,ugm-3,21,R,ugm-3,,,,,,,,,
08-01-2008,19:00,16,R,ugm-3 (VCM),3,R,ugm-3,23,R,ugm-3,27,R,ugm-3,,,,,,,,,
08-01-2008,20:00,13,R,ugm-3 (VCM),1,R,ugm-3,13,R,ugm-3,15,R,ugm-3,,,,,,,,,
08-01-2008,21:00,11,R,ugm-3 (VCM),1,R,ugm-3,15,R,ugm-3,17,R,ugm-3,,,,,,,,,
08-01-2008,22:00,11,R,ugm-3 (VCM),1,R,ugm-3,8,R,ugm-3,10,R,ugm-3,,,,,,,,,
08-01-2008,23:00,-3,R,ugm-3 (VCM),1,R,ugm-3,8,R,ugm-3,10,R,ugm-3,,,,,,,,,
08-01-2008,24:00,-1,R,ugm-3 (VCM),1,R,ugm-3,10,R,ugm-3,11,R,ugm-3,,,,,,,,,
09-01-2008,01:00,-2,R,ugm-3 (VCM),3,R,ugm-3,11,R,ugm-3,15,R,ugm-3,,,,,,,,,
09-01-2008,02:00,1,R,ugm-3 (VCM),,,,,,,,,,,,,,,,,,
09-01-2008,03:00,3,R,ugm-3 (VCM),3,R,ugm-3,8,R,ugm-3,11,R,ugm-3,,,,,,,,,
09-01-2008,04:00,2,R,ugm-3 (VCM),1,R,ugm-3,6,R,ugm-3,8,R,ugm-3,,,,,,,,,
09-01-2008,05:00,4,R,ugm-3 (VCM),3,R,ugm-3,8,R,ugm-3,11,R,ugm-3,,,,,,,,,
09-01-2008,06:00,1,R,ugm-3 (VCM),3,R,ugm-3,6,R,ugm-3,10,R,ugm-3,,,,,,,,,
09-01-2008,07:00,3,R,ugm-3 (VCM),3,R,ugm-3,15,R,ugm-3,19,R,ugm-3,,,,,,,,,
09-01-2008,08:00,3,R,ugm-3 (VCM),3,R,ugm-3,17,R,ugm-3,21,R,ugm-3,,,,,,,,,
09-01-2008,09:00,2,R,ugm-3 (VCM),3,R,ugm-3,21,R,ugm-3,25,R,ugm-3,,,,,,,,,
09-01-2008,10:00,2,R,ugm-3 (VCM),4,R,ugm-3,21,R,ugm-3,27,R,ugm-3,,,,,,,,,
09-01-2008,11:00,1,R,ugm-3 (VCM),3,R,ugm-3,17,R,ugm-3,21,R,ugm-3,,,,,,,,,
09-01-2008,12:00,5,R,ugm-3 (VCM),3,R,ugm-3,15,R,ugm-3,19,R,ugm-3,,,,,,,,,
09-01-2008,13:00,7,R,ugm-3 (VCM),3,R,ugm-3,11,R,ugm-3,15,R,ugm-3,,,,,,,,,
09-01-2008,14:00,5,R,ugm-3 (VCM),4,R,ugm-3,13,R,ugm-3,19,R,ugm-3,,,,,,,,,
09-01-2008,15:00,9,R,ugm-3 (VCM),3,R,ugm-3,11,R,ugm-3,15,R,ugm-3,,,,,,,,,
09-01-2008,16:00,4,R,ugm-3 (VCM),3,R,ugm-3,11,R,ugm-3,15,R,ugm-3,,,,,,,,,
09-01-2008,17:00,4,R,ugm-3 (VCM),3,R,ugm-3,19,R,ugm-3,23,R,ugm-3,,,,,,,,,
09-01-2008,18:00,1,R,ugm-3 (VCM),3,R,ugm-3,25,R,ugm-3,29,R,ugm-3,,,,,,,,,
09-01-2008,19:00,9,R,ugm-3 (VCM),4,R,ugm-3,44,R,ugm-3,50,R,ugm-3,,,,,,,,,
09-01-2008,20:00,10,R,ugm-3 (VCM),4,R,ugm-3,36,R,ugm-3,42,R,ugm-3,,,,,,,,,
09-01-2008,21:00,14,R,ugm-3 (VCM),3,R,ugm-3,23,R,ugm-3,27,R,ugm-3,,,,,,,,,
09-01-2008,22:00,11,R,ugm-3 (VCM),1,R,ugm-3,11,R,ugm-3,13,R,ugm-3,,,,,,,,,
09-01-2008,23:00,8,R,ugm-3 (VCM),1,R,ugm-3,8,R,ugm-3,10,R,ugm-3,,,,,,,,,
09-01-2008,24:00,10,R,ugm-3 (VCM),1,R,ugm-3,4,R,ugm-3,6,R,ugm-3,,,,,,,,,
10-01-2008,01:00,7,R,ugm-3 (VCM),1,R,ugm-3,6,R,ugm-3,8,R,ugm-3,,,,,,,,,
10-01-2008,02:00,10,R,ugm-3 (VCM),,,,,,,,,,,,,,,,,,
10-01-2008,03:00,7,R,ugm-3 (VCM),1,R,ugm-3,6,R,ugm-3,8,R,ugm-3,,,,,,,,,
10-01-2008,04:00,12,R,ugm-3 (VCM),1,R,ugm-3,6,R,ugm-3,8,R,ugm-3,,,,,,,,,
10-01-2008,05:00,9,R,ugm-3 (VCM),1,R,ugm-3,6,R,ugm-3,8,R,ugm-3,,,,,,,,,
10-01-2008,06:00,9,R,ugm-3 (VCM),1,R,ugm-3,8,R,ugm-3,10,R,ugm-3,,,,,,,,,
10-01-2008,07:00,11,R,ugm-3 (VCM),1,R,ugm-3,11,R,ugm-3,13,R,ugm-3,,,,,,,,,
10-01-2008,08:00,11,R,ugm-3 (VCM),3,R,ugm-3,19,R,ugm-3,23,R,ugm-3,,,,,,,,,
10-01-2008,09:00,11,R,ugm-3 (VCM),3,R,ugm-3,17,R,ugm-3,21,R,ugm-3,,,,,,,,,
10-01-2008,10:00,12,R,ugm-3 (VCM),3,R,ugm-3,15,R,ugm-3,19,R,ugm-3,,,,,,,,,
10-01-2008,11:00,10,R,ugm-3 (VCM),3,R,ugm-3,11,R,ugm-3,15,R,ugm-3,,,,,,,,,
10-01-2008,12:00,11,R,ugm-3 (VCM),1,R,ugm-3,10,R,ugm-3,11,R,ugm-3,,,,,,,,,
10-01-2008,13:00,11,R,ugm-3 (VCM),3,R,ugm-3,11,R,ugm-3,15,R,ugm-3,,,,,,,,,
10-01-2008,14:00,2,R,ugm-3 (VCM),1,R,ugm-3,10,R,ugm-3,11,R,ugm-3,,,,,,,,,
10-01-2008,15:00,3,R,ugm-3 (VCM),1,R,ugm-3,10,R,ugm-3,11,R,ugm-3,,,,,,,,,
10-01-2008,16:00,4,R,ugm-3 (VCM),3,R,ugm-3,11,R,ugm-3,15,R,ugm-3,,,,,,,,,
10-01-2008,17:00,3,R,ugm-3 (VCM),3,R,ugm-3,15,R,ugm-3,19,R,ugm-3,,,,,,,,,
10-01-2008,18:00,5,R,ugm-3 (VCM),3,R,ugm-3,21,R,ugm-3,25,R,ugm-3,,,,,,,,,
10-01-2008,19:00,3,R,ugm-3 (VCM),5,R,ugm-3,32,R,ugm-3,40,R,ugm-3,,,,,,,,,
10-01-2008,20:00,7,R,ugm-3 (VCM),11,R,ugm-3,57,R,ugm-3,74,R,ugm-3,,,,,,,,,
10-01-2008,21:00,7,R,ugm-3 (VCM),11,R,ugm-3,46,R,ugm-3,63,R,ugm-3,,,,,,,,,
10-01-2008,22:00,4,R,ugm-3 (VCM),3,R,ugm-3,29,R,ugm-3,32,R,ugm-3,,,,,,,,,
10-01-2008,23:00,7,R,ugm-3 (VCM),3,R,ugm-3,27,R,ugm-3,31,R,ugm-3,,,,,,,,,
10-01-2008,24:00,7,R,ugm-3 (VCM),1,R,ugm-3,32,R,ugm-3,34,R,ugm-3,,,,,,,,,
11-01-2008,01:00,10,R,ugm-3 (VCM),5,R,ugm-3,42,R,ugm-3,50,R,ugm-3,,,,,,,,,
11-01-2008,02:00,9,R,ugm-3 (VCM),,,,,,,,,,,,,,,,,,
11-01-2008,03:00,9,R,ugm-3 (VCM),3,R,ugm-3,40,R,ugm-3,44,R,ugm-3,,,,,,,,,
11-01-2008,04:00,7,R,ugm-3 (VCM),4,R,ugm-3,38,R,ugm-3,44,R,ugm-3,,,,,,,,,
11-01-2008,05:00,7,R,ugm-3 (VCM),38,R,ugm-3,40,R,ugm-3,97,R,ugm-3,,,,,,,,,
11-01-2008,06:00,12,R,ugm-3 (VCM),69,R,ugm-3,44,R,ugm-3,149,R,ugm-3,,,,,,,,,
11-01-2008,07:00,14,R,ugm-3 (VCM),9,R,ugm-3,46,R,ugm-3,59,R,ugm-3,,,,,,,,,
11-01-2008,08:00,9,R,ugm-3 (VCM),5,R,ugm-3,40,R,ugm-3,48,R,ugm-3,,,,,,,,,
11-01-2008,09:00,7,R,ugm-3 (VCM),5,R,ugm-3,44,R,ugm-3,52,R,ugm-3,,,,,,,,,
11-01-2008,10:00,9,R,ugm-3 (VCM),5,R,ugm-3,50,R,ugm-3,57,R,ugm-3,,,,,,,,,
11-01-2008,11:00,4,R,ugm-3 (VCM),4,R,ugm-3,44,R,ugm-3,50,R,ugm-3,,,,,,,,,
11-01-2008,12:00,7,R,ugm-3 (VCM),6,R,ugm-3,48,R,ugm-3,57,R,ugm-3,,,,,,,,,
11-01-2008,13:00,7,R,ugm-3 (VCM),9,R,ugm-3,53,R,ugm-3,67,R,ugm-3,,,,,,,,,
11-01-2008,14:00,5,R,ugm-3 (VCM),3,R,ugm-3,25,R,ugm-3,29,R,ugm-3,,,,,,,,,
11-01-2008,15:00,6,R,ugm-3 (VCM),3,R,ugm-3,34,R,ugm-3,38,R,ugm-3,,,,,,,,,
11-01-2008,16:00,4,R,ugm-3 (VCM),3,R,ugm-3,34,R,ugm-3,38,R,ugm-3,,,,,,,,,
11-01-2008,17:00,3,R,ugm-3 (VCM),3,R,ugm-3,27,R,ugm-3,31,R,ugm-3,,,,,,,,,
11-01-2008,18:00,2,R,ugm-3 (VCM),3,R,ugm-3,29,R,ugm-3,32,R,ugm-3,,,,,,,,,
11-01-2008,19:00,1,R,ugm-3 (VCM),5,R,ugm-3,38,R,ugm-3,46,R,ugm-3,,,,,,,,,
11-01-2008,20:00,0,R,ugm-3 (VCM),3,R,ugm-3,34,R,ugm-3,38,R,ugm-3,,,,,,,,,
11-01-2008,21:00,,,,3,R,ugm-3,32,R,ugm-3,36,R,ugm-3,,,,,,,,,
11-01-2008,22:00,,,,3,R,ugm-3,27,R,ugm-3,31,R,ugm-3,,,,,,,,,
11-01-2008,23:00,,,,3,R,ugm-3,21,R,ugm-3,25,R,ugm-3,,,,,,,,,
11-01-2008,24:00,,,,1,R,ugm-3,15,R,ugm-3,17,R,ugm-3,,,,,,,,,
12-01-2008,01:00,,,,1,R,ugm-3,21,R,ugm-3,23,R,ugm-3,,,,,,,,,
12-01-2008,02:00,,,,,,,,,,,,,,,,,,,,,
12-01-2008,03:00,,,,1,R,ugm-3,8,R,ugm-3,10,R,ugm-3,,,,,,,,,
12-01-2008,04:00,,,,1,R,ugm-3,8,R,ugm-3,10,R,ugm-3,,,,,,,,,
12-01-2008,05:00,,,,1,R,ugm-3,11,R,ugm-3,13,R,ugm-3,,,,,,,,,
12-01-2008,06:00,,,,1,R,ugm-3,10,R,ugm-3,11,R,ugm-3,,,,,,,,,
12-01-2008,07:00,,,,1,R,ugm-3,17,R,ugm-3,19,R,ugm-3,,,,,,,,,
12-01-2008,08:00,,,,1,R,ugm-3,19,R,ugm-3,21,R,ugm-3,,,,,,,,,
12-01-2008,09:00,,,,3,R,ugm-3,21,R,ugm-3,25,R,ugm-3,,,,,,,,,
12-01-2008,10:00,,,,3,R,ugm-3,17,R,ugm-3,21,R,ugm-3,,,,,,,,,
12-01-2008,11:00,,,,4,R,ugm-3,17,R,ugm-3,23,R,ugm-3,,,,,,,,,
12-01-2008,12:00,,,,3,R,ugm-3,17,R,ugm-3,21,R,ugm-3,,,,,,,,,
12-01-2008,13:00,,,,4,R,ugm-3,19,R,ugm-3,25,R,ugm-3,,,,,,,,,
12-01-2008,14:00,,,,3,R,ugm-3,19,R,ugm-3,23,R,ugm-3,,,,,,,,,
12-01-2008,15:00,,,,4,R,ugm-3,17,R,ugm-3,23,R,ugm-3,,,,,,,,,
12-01-2008,16:00,,,,4,R,ugm-3,23,R,ugm-3,29,R,ugm-3,,,,,,,,,
12-01-2008,17:00,,,,13,R,ugm-3,55,R,ugm-3,74,R,ugm-3,,,,,,,,,
12-01-2008,18:00,,,,5,R,ugm-3,44,R,ugm-3,52,R,ugm-3,,,,,,,,,
12-01-2008,19:00,,,,3,R,ugm-3,38,R,ugm-3,42,R,ugm-3,,,,,,,,,
12-01-2008,20:00,,,,5,R,ugm-3,44,R,ugm-3,52,R,ugm-3,,,,,,,,,
12-01-2008,21:00,,,,1,R,ugm-3,19,R,ugm-3,21,R,ugm-3,,,,,,,,,
12-01-2008,22:00,,,,1,R,ugm-3,17,R,ugm-3,19,R,ugm-3,,,,,,,,,
12-01-2008,23:00,,,,1,R,ugm-3,17,R,ugm-3,19,R,ugm-3,,,,,,,,,
12-01-2008,24:00,,,,1,R,ugm-3,17,R,ugm-3,19,R,ugm-3,,,,,,,,,
13-01-2008,01:00,,,,1,R,ugm-3,19,R,ugm-3,21,R,ugm-3,,,,,,,,,
13-01-2008,02:00,,,,,,,,,,,,,,,,,,,,,
13-01-2008,03:00,,,,1,R,ugm-3,4,R,ugm-3,6,R,ugm-3,,,,,,,,,
13-01-2008,04:00,,,,1,R,ugm-3,4,R,ugm-3,6,R,ugm-3,,,,,,,,,
13-01-2008,05:00,3,R,ugm-3 (VCM),1,R,ugm-3,4,R,ugm-3,6,R,ugm-3,,,,,,,,,
13-01-2008,06:00,4,R,ugm-3 (VCM),1,R,ugm-3,4,R,ugm-3,6,R,ugm-3,,,,,,,,,
13-01-2008,07:00,,,,0,R,ugm-3,8,R,ugm-3,8,R,ugm-3,,,,,,,,,
13-01-2008,08:00,7,R,ugm-3 (VCM),1,R,ugm-3,8,R,ugm-3,10,R,ugm-3,,,,,,,,,
13-01-2008,09:00,7,R,ugm-3 (VCM),1,R,ugm-3,6,R,ugm-3,8,R,ugm-3,,,,,,,,,
13-01-2008,10:00,9,R,ugm-3 (VCM),1,R,ugm-3,10,R,ugm-3,11,R,ugm-3,,,,,,,,,
13-01-2008,11:00,17,R,ugm-3 (VCM),1,R,ugm-3,19,R,ugm-3,21,R,ugm-3,,,,,,,,,
13-01-2008,12:00,15,R,ugm-3 (VCM),3,R,ugm-3,17,R,ugm-3,21,R,ugm-3,,,,,,,,,
13-01-2008,13:00,14,R,ugm-3 (VCM),3,R,ugm-3,25,R,ugm-3,29,R,ugm-3,,,,,,,,,
13-01-2008,14:00,15,R,ugm-3 (VCM),3,R,ugm-3,15,R,ugm-3,19,R,ugm-3,,,,,,,,,
13-01-2008,15:00,13,R,ugm-3 (VCM),1,R,ugm-3,11,R,ugm-3,13,R,ugm-3,,,,,,,,,
13-01-2008,16:00,13,R,ugm-3 (VCM),1,R,ugm-3,10,R,ugm-3,11,R,ugm-3,,,,,,,,,
13-01-2008,17:00,,,,1,R,ugm-3,8,R,ugm-3,10,R,ugm-3,,,,,,,,,
13-01-2008,18:00,,,,1,R,ugm-3,8,R,ugm-3,10,R,ugm-3,,,,,,,,,
13-01-2008,19:00,,,,1,R,ugm-3,8,R,ugm-3,10,R,ugm-3,,,,,,,,,
13-01-2008,20:00,,,,1,R,ugm-3,8,R,ugm-3,10,R,ugm-3,,,,,,,,,
13-01-2008,21:00,,,,1,R,ugm-3,8,R,ugm-3,10,R,ugm-3,,,,,,,,,
13-01-2008,22:00,,,,1,R,ugm-3,8,R,ugm-3,10,R,ugm-3,,,,,,,,,
13-01-2008,23:00,,,,1,R,ugm-3,10,R,ugm-3,11,R,ugm-3,,,,,,,,,
13-01-2008,24:00,,,,1,R,ugm-3,13,R,ugm-3,15,R,ugm-3,,,,,,,,,
14-01-2008,01:00,,,,1,R,ugm-3,19,R,ugm-3,21,R,ugm-3,,,,,,,,,
14-01-2008,02:00,,,,,,,,,,,,,,,,,,,,,
14-01-2008,03:00,,,,1,R,ugm-3,6,R,ugm-3,8,R,ugm-3,,,,,,,,,
14-01-2008,04:00,,,,1,R,ugm-3,4,R,ugm-3,6,R,ugm-3,,,,,,,,,
14-01-2008,05:00,,,,3,R,ugm-3,15,R,ugm-3,19,R,ugm-3,,,,,,,,,
14-01-2008,06:00,,,,3,R,ugm-3,25,R,ugm-3,29,R,ugm-3,,,,,,,,,
14-01-2008,07:00,,,,4,R,ugm-3,34,R,ugm-3,40,R,ugm-3,,,,,,,,,
14-01-2008,08:00,,,,3,R,ugm-3,17,R,ugm-3,21,R,ugm-3,,,,,,,,,
14-01-2008,09:00,,,,3,R,ugm-3,17,R,ugm-3,21,R,ugm-3,,,,,,,,,
14-01-2008,10:00,,,,3,R,ugm-3,19,R,ugm-3,23,R,ugm-3,,,,,,,,,
14-01-2008,11:00,,,,3,R,ugm-3,13,R,ugm-3,17,R,ugm-3,,,,,,,,,
14-01-2008,12:00,,,,3,R,ugm-3,11,R,ugm-3,15,R,ugm-3,,,,,,,,,
14-01-2008,13:00,,,,3,R,ugm-3,10,R,ugm-3,13,R,ugm-3,,,,,,,,,
14-01-2008,14:00,,,,3,R,ugm-3,11,R,ugm-3,15,R,ugm-3,,,,,,,,,
14-01-2008,15:00,,,,1,R,ugm-3,13,R,ugm-3,15,R,ugm-3,,,,,,,,,
14-01-2008,16:00,0,R,ugm-3 (VCM),1,R,ugm-3,11,R,ugm-3,13,R,ugm-3,,,,,,,,,
14-01-2008,17:00,,,,1,R,ugm-3,11,R,ugm-3,13,R,ugm-3,,,,,,,,,